Weather History for PAVL - February, 2013

Change the Weather History Date:

Sunday, February 24, 2013

  Actual Average Record
Temperature  
Mean Temperature -12 °F -  
Max Temperature -4 °F - - ()
Min Temperature -20 °F - - ()
Degree Days  
Heating Degree Days 77    
Moisture  
Dew Point -13 °F    
Average Humidity 78    
Maximum Humidity 86    
Minimum Humidity 70    
Precipitation  
Precipitation 0.00 in - - ()
Sea Level Pressure  
Sea Level Pressure 29.62 in    
Wind  
Wind Speed 3 mph (NE)    
Max Wind Speed 7 mph    
Max Gust Speed -    
Visibility 8 miles    
Events      
T = Trace of Precipitation, MM = Missing Value Source: NWS Daily Summary

Daily Weather History Graph

Daily Weather History Graph

Search for Another Location

Airport or City:

Trip Planner

Search our weather history database for the weather conditions in past years. The results will help you decide how hot, cold, wet, or windy it might be!

Date:

Astronomy

Feb. 24, 2013 Rise Set
Actual Time 9:34 AM AKST 6:49 PM AKST
Civil Twilight 8:38 AM AKST 7:46 PM AKST
Nautical Twilight 7:34 AM AKST 8:49 PM AKST
Astronomical Twilight 6:29 AM AKST 9:55 PM AKST
Moon 6:18 PM AKST (2/24) 8:44 AM AKST (2/24)
Length of Visible Light 11h 08m
Length of Day
9h 14m
Waxing Gibbous, 99% of the Moon is Illuminated
Feb 24
Waxing Gibbous
Feb 25
Full
Mar 4
Last Quarter
Mar 11
New
Mar 19
First Quarter

Hourly Weather History & Observations

Time (AKST) Temp. Windchill Dew Point Humidity Pressure Visibility Wind Dir Wind Speed Gust Speed Precip Events Conditions
12:53 AM -20.9 °F -34.3 °F -27.9 °F 70% 29.52 in 10.0 mi NNE 4.6 mph - N/A   Overcast
1:53 AM -18.0 °F -28.5 °F -25.1 °F 70% 29.53 in 10.0 mi NE 3.5 mph - N/A   Overcast
2:53 AM -15.0 °F -29.3 °F -22.0 °F 71% 29.53 in 8.0 mi North 5.8 mph - N/A   Overcast
3:53 AM -13.0 °F -25.1 °F -18.9 °F 75% 29.53 in 8.0 mi NNE 4.6 mph - N/A   Overcast
4:53 AM -11.0 °F -26.2 °F -17.0 °F 75% 29.53 in 8.0 mi NNE 6.9 mph - N/A   Overcast
5:53 AM -9.9 °F -19.2 °F -16.1 °F 74% 29.54 in 8.0 mi North 3.5 mph - N/A   Overcast
6:53 AM -9.0 °F -18.2 °F -15.0 °F 75% 29.55 in 8.0 mi NNE 3.5 mph - N/A   Overcast
7:53 AM -9.0 °F -18.2 °F -14.1 °F 79% 29.56 in 7.0 mi ENE 3.5 mph - N/A   Overcast
8:53 AM -9.0 °F -18.2 °F -14.1 °F 79% 29.57 in 7.0 mi East 3.5 mph - 0.00 in   Overcast
9:53 AM -8.0 °F - -11.9 °F 83% 29.58 in 6.0 mi Calm Calm - N/A   Overcast
10:53 AM -7.1 °F - -11.0 °F 83% 29.60 in 5.0 mi Calm Calm - N/A   Overcast
11:53 AM -6.0 °F - -9.9 °F 83% 29.62 in 5.0 mi Calm Calm - N/A   Overcast
12:53 PM -5.1 °F -13.6 °F -9.9 °F 80% 29.64 in 6.0 mi ENE 3.5 mph - N/A   Haze
1:53 PM -5.1 °F - -9.0 °F 83% 29.65 in 5.0 mi Calm Calm - N/A   Overcast
2:53 PM -5.1 °F - -9.0 °F 83% 29.66 in 6.0 mi Calm Calm - N/A   Overcast
3:53 PM -4.0 °F - -9.9 °F 76% 29.67 in 8.0 mi Calm Calm - N/A   Overcast
4:53 PM -4.0 °F - -9.0 °F 79% 29.68 in 7.0 mi Calm Calm - N/A   Overcast
5:53 PM -4.0 °F - -9.9 °F 76% 29.69 in 8.0 mi Calm Calm - N/A   Overcast
6:53 PM -4.0 °F - -9.0 °F 79% 29.70 in 9.0 mi Calm Calm - N/A   Overcast
7:53 PM -4.0 °F -12.4 °F -9.0 °F 79% 29.71 in 10.0 mi NE 3.5 mph - N/A   Overcast
8:53 PM -5.1 °F - -9.0 °F 83% 29.72 in 9.0 mi Calm Calm - N/A   Overcast
9:53 PM -5.1 °F -13.6 °F -9.9 °F 80% 29.73 in 10.0 mi East 3.5 mph - N/A   Overcast
10:53 PM -8.0 °F -16.9 °F -11.0 °F 86% 29.73 in 10.0 mi East 3.5 mph - N/A   Partly Cloudy
11:53 PM -8.0 °F -19.2 °F -13.0 °F 79% 29.76 in 10.0 mi East 4.6 mph - N/A   Overcast